Starlink 4731

operational
NORAD ID: 53703 Int'l Des: 2022-107 Owner: SPXS Country: US Constellation: starlink
LEOCIRCULAR

About Starlink 4731

Description loading...

Live Position

Loading 3D Globe...

Upcoming Passes

Altitude History

Altitude vs Time

uPlot chart will show altitude changes over time

Two-Line Element Set

1 53703U 22107D 25303.83397758 .00001611 00000-0 11928-3 0 9996
2 53703 53.2155 106.8099 0001344 85.2528 274.8618 15.08834342175250
Epoch: Oct 30, 2025 • Age: 10 hours

Current Status

Altitude 539.7 km
Velocity 7.60 km/s
Sub-Earth Point 16.26°N, 138.69°E
Launch Date Sep 5, 2022
Age 3.1 years
Type internet

Technical Details

Classification Payload
Mass 305.00 kg
Dry Mass 290.00 kg
Total Mass 305.00 kg
Length 0.20 m
Diameter 2.80 m
Span 9.00 m
Shape Box + pan
Manufacturer SPXS
Bus Type Starlink
Phase Status In Orbit
Owner/State SPXS/US

Large Constellations

Loading constellations...